Time,TemperatureF,DewpointF,PressureIn,WindDirection,WindDirectionDegrees,WindSpeedMPH,WindSpeedGustMPH,Humidity,HourlyPrecipIn,Conditions,Clouds,dailyrainin,SoftwareType,DateUTC
2013-10-04 11:07:00,77.9,71.0,29.90,SSW,192,7.0,12.0,78,0.00,,,0.00,weatherlink.com 1.10,2013-10-04 16:07:00,
2013-10-04 11:16:00,78.6,71.0,29.90,SSE,154,5.0,11.0,78,0.00,,,0.00,weatherlink.com 1.10,2013-10-04 16:16:00,
2013-10-04 11:31:00,79.6,71.0,29.90,WSW,243,3.0,11.0,75,0.00,,,0.00,weatherlink.com 1.10,2013-10-04 16:31:00,
2013-10-04 11:49:00,80.1,71.0,29.90,SW,217,2.0,8.0,74,0.00,,,0.00,weatherlink.com 1.10,2013-10-04 16:49:00,
2013-10-04 12:01:00,81.2,72.0,29.90,SW,226,6.0,10.0,73,0.00,,,0.00,weatherlink.com 1.10,2013-10-04 17:01:00,
2013-10-04 12:16:00,82.7,72.0,29.90,SSW,195,5.0,10.0,69,0.00,,,0.00,weatherlink.com 1.10,2013-10-04 17:16:00,
2013-10-04 12:31:00,83.0,71.0,29.89,SW,229,4.0,12.0,67,0.00,,,0.00,weatherlink.com 1.10,2013-10-04 17:31:00,
2013-10-04 13:01:00,83.9,71.0,29.88,West,276,3.0,13.0,65,0.00,,,0.00,weatherlink.com 1.10,2013-10-04 18:01:00,
2013-10-04 13:16:00,84.7,71.0,29.88,WSW,250,5.0,8.0,63,0.00,,,0.00,weatherlink.com 1.10,2013-10-04 18:16:00,
2013-10-04 13:31:00,85.7,72.0,29.87,SSE,153,7.0,10.0,63,0.00,,,0.00,weatherlink.com 1.10,2013-10-04 18:31:00,
2013-10-04 13:46:00,85.7,70.0,29.87,SSW,212,3.0,12.0,59,0.00,,,0.00,weatherlink.com 1.10,2013-10-04 18:46:00,
2013-10-04 14:01:00,86.4,70.0,29.86,SSW,202,7.0,13.0,59,0.00,,,0.00,weatherlink.com 1.10,2013-10-04 19:01:00,
2013-10-04 14:31:00,87.4,69.0,29.85,SSW,197,10.0,13.0,55,0.00,,,0.00,weatherlink.com 1.10,2013-10-04 19:31:00,
2013-10-04 14:46:00,87.3,69.0,29.84,WSW,249,3.0,8.0,54,0.00,,,0.00,weatherlink.com 1.10,2013-10-04 19:46:00,
2013-10-04 15:01:00,86.1,67.0,29.84,WSW,258,4.0,11.0,54,0.00,,,0.00,weatherlink.com 1.10,2013-10-04 20:01:00,
2013-10-04 15:18:00,87.2,68.0,29.84,ESE,109,6.0,12.0,53,0.00,,,0.00,weatherlink.com 1.10,2013-10-04 20:18:00,
2013-10-04 15:31:00,87.4,68.0,29.84,WSW,243,11.0,14.0,53,0.00,,,0.00,weatherlink.com 1.10,2013-10-04 20:31:00,
2013-10-04 15:46:00,85.7,68.0,29.84,SW,221,3.0,10.0,56,0.00,,,0.00,weatherlink.com 1.10,2013-10-04 20:46:00,
2013-10-04 16:01:00,86.3,67.0,29.84,South,188,7.0,11.0,52,0.00,,,0.00,weatherlink.com 1.10,2013-10-04 21:01:00,
2013-10-04 16:16:00,85.7,68.0,29.84,SSW,207,4.0,14.0,56,0.00,,,0.00,weatherlink.com 1.10,2013-10-04 21:16:00,
2013-10-04 16:31:00,85.4,68.0,29.84,SSW,208,5.0,12.0,57,0.00,,,0.00,weatherlink.com 1.10,2013-10-04 21:31:00,
2013-10-04 16:46:00,83.7,68.0,29.85,SSW,207,6.0,10.0,60,0.00,,,0.00,weatherlink.com 1.10,2013-10-04 21:46:00,
2013-10-04 17:01:00,84.3,69.0,29.85,West,264,5.0,12.0,60,0.00,,,0.00,weatherlink.com 1.10,2013-10-04 22:01:00,
2013-10-04 17:16:00,84.3,68.0,29.85,South,180,5.0,8.0,58,0.00,,,0.00,weatherlink.com 1.10,2013-10-04 22:16:00,
2013-10-04 17:31:00,84.8,69.0,29.85,SSE,167,4.0,10.0,59,0.00,,,0.00,weatherlink.com 1.10,2013-10-04 22:31:00,
2013-10-04 17:47:00,84.5,69.0,29.85,SSE,158,5.0,9.0,60,0.00,,,0.00,weatherlink.com 1.10,2013-10-04 22:47:00,
2013-10-04 18:02:00,83.0,69.0,29.85,SSW,197,3.0,10.0,63,0.00,,,0.00,weatherlink.com 1.10,2013-10-04 23:02:00,
2013-10-04 18:17:00,82.1,69.0,29.85,South,174,6.0,14.0,64,0.00,,,0.00,weatherlink.com 1.10,2013-10-04 23:17:00,
2013-10-04 18:32:00,80.8,69.0,29.86,SW,218,4.0,9.0,67,0.00,,,0.00,weatherlink.com 1.10,2013-10-04 23:32:00,
2013-10-04 18:47:00,79.8,68.0,29.86,South,187,6.0,9.0,68,0.00,,,0.00,weatherlink.com 1.10,2013-10-04 23:47:00,
2013-10-04 19:02:00,79.5,68.0,29.86,South,190,6.0,9.0,69,0.00,,,0.00,weatherlink.com 1.10,2013-10-05 00:02:00,
2013-10-04 19:17:00,79.2,68.0,29.86,South,183,4.0,8.0,69,0.00,,,0.00,weatherlink.com 1.10,2013-10-05 00:17:00,
2013-10-04 19:32:00,78.9,68.0,29.86,South,176,6.0,10.0,70,0.00,,,0.00,weatherlink.com 1.10,2013-10-05 00:32:00,
2013-10-04 19:47:00,78.6,68.0,29.86,SSW,203,5.0,11.0,71,0.00,,,0.00,weatherlink.com 1.10,2013-10-05 00:47:00,
2013-10-04 20:02:00,78.5,69.0,29.87,SSW,210,6.0,10.0,72,0.00,,,0.00,weatherlink.com 1.10,2013-10-05 01:02:00,
2013-10-04 20:17:00,78.3,69.0,29.88,SSW,200,5.0,9.0,73,0.00,,,0.00,weatherlink.com 1.10,2013-10-05 01:17:00,
2013-10-04 20:32:00,78.0,70.0,29.88,SW,228,9.0,10.0,75,0.00,,,0.00,weatherlink.com 1.10,2013-10-05 01:32:00,
2013-10-04 20:47:00,77.9,69.0,29.88,SSE,156,5.0,12.0,75,0.00,,,0.00,weatherlink.com 1.10,2013-10-05 01:47:00,
2013-10-04 21:02:00,77.7,70.0,29.88,SSE,160,5.0,11.0,76,0.00,,,0.00,weatherlink.com 1.10,2013-10-05 02:02:00,
2013-10-04 21:17:00,77.4,69.0,29.89,South,187,3.0,12.0,76,0.00,,,0.00,weatherlink.com 1.10,2013-10-05 02:17:00,
2013-10-04 21:32:00,77.1,69.0,29.89,South,170,9.0,13.0,77,0.00,,,0.00,weatherlink.com 1.10,2013-10-05 02:32:00,
2013-10-04 21:47:00,76.7,69.0,29.88,SSW,200,9.0,11.0,78,0.00,,,0.00,weatherlink.com 1.10,2013-10-05 02:47:00,
2013-10-04 22:02:00,76.6,70.0,29.88,South,191,6.0,14.0,79,0.00,,,0.00,weatherlink.com 1.10,2013-10-05 03:02:00,
2013-10-04 22:17:00,76.6,70.0,29.88,South,187,9.0,14.0,80,0.00,,,0.00,weatherlink.com 1.10,2013-10-05 03:17:00,
2013-10-04 22:32:00,76.1,70.0,29.89,South,177,15.0,16.0,81,0.00,,,0.00,weatherlink.com 1.10,2013-10-05 03:32:00,
2013-10-04 22:47:00,76.1,70.0,29.89,South,185,11.0,16.0,81,0.00,,,0.00,weatherlink.com 1.10,2013-10-05 03:47:00,
2013-10-04 23:02:00,75.7,70.0,29.89,SW,229,9.0,12.0,82,0.00,,,0.00,weatherlink.com 1.10,2013-10-05 04:02:00,
2013-10-04 23:17:00,75.3,70.0,29.89,SSW,210,6.0,15.0,83,0.00,,,0.00,weatherlink.com 1.10,2013-10-05 04:17:00,
2013-10-04 23:32:00,75.1,70.0,29.89,South,173,6.0,14.0,84,0.00,,,0.00,weatherlink.com 1.10,2013-10-05 04:32:00,
2013-10-04 23:47:00,74.8,70.0,29.89,South,170,3.0,11.0,84,0.00,,,0.00,weatherlink.com 1.10,2013-10-05 04:47:00,